User: anonymous   Login
Location: ?
(35.4214°N, 139.3011°E)
Time: 11:07:29
(UTC+00:00)
Language:

Cosmos 2333 Rocket - Orbit

View from above orbital plane
View from above orbital plane
View from above satellite
View from above satellite

Ground track
Ground track

The orbit data is extracted from the following two-line orbital elements,

1 24298U 96051B   20270.78360727 -.00000141  00000-0 -49633-4 0  9994
2 24298  70.8411  56.9177 0018038 209.1344 150.8771 14.12495304240925
Epoch (UTC): 26 September 2020 18:48:23
Eccentricity: 0.0018038
inclination: 70.8411°
perigee height: 838 km
apogee height: 864 km
right ascension of ascending node: 56.9177°
argument of perigee: 209.1344°
revolutions per day: 14.12495304
mean anomaly at epoch: 150.8771°
orbit number at epoch: 24092

The dashed part of the orbit path shows where the satellite is in the earth's shadow,  

DLR